Weather History for Springfield, MO

Change the Weather History Date:

Tuesday, January 8, 2013

  Actual Average Record
Temperature  
Mean Temperature 43 °F 32 °F  
Max Temperature 56 °F 42 °F 68 °F (2003)
Min Temperature 30 °F 22 °F -12 °F (1979)
Degree Days  
Heating Degree Days 22 33  
Month to date heating degree days 263 261  
Since 1 July heating degree days 1910 2071  
Cooling Degree Days 0 0  
Month to date cooling degree days 0 0  
Year to date cooling degree days 0 0  
Moisture  
Dew Point 36 °F    
Average Humidity 71    
Maximum Humidity 100    
Minimum Humidity 42    
Precipitation  
Precipitation 0.26 in 0.08 in 1.55 in (2008)
Month to date precipitation 0.26 0.70  
Year to date precipitation 0.26 0.70  
Snow  
Snow 0.00 in - - ()
Month to date snowfall T  
Since 1 July snowfall 1.3  
Snow Depth 0.00 in    
Sea Level Pressure  
Sea Level Pressure 30.14 in    
Wind  
Wind Speed 11 mph (South)    
Max Wind Speed 20 mph    
Max Gust Speed 23 mph    
Visibility 8 miles    
Events Rain    
T = Trace of Precipitation, MM = Missing Value Source: NWS Daily Summary

Daily Weather History Graph

Daily Weather History Graph

Search for Another Location

Airport:

Trip Planner

Search our weather history database for the weather conditions in past years. The results will help you decide how hot, cold, wet, or windy it might be!

Date:

Astronomy

Jan. 08, 2013 Rise Set
Actual Time 7:27 AM CST 5:13 PM CST
Civil Twilight 6:59 AM CST 5:42 PM CST
Nautical Twilight 6:26 AM CST 6:14 PM CST
Astronomical Twilight 5:55 AM CST 6:45 PM CST
Moon 4:01 AM CST (1/8) 2:15 PM CST (1/8)
Length of Visible Light 10h 43m
Length of Day
9h 45m
Waning Crescent, 13% of the Moon is Illuminated
Jan 8
Waning Crescent
Jan 11
New
Jan 18
First Quarter
Jan 26
Full
Feb 3
Last Quarter

Hourly Weather History & Observations

Time (CST) Temp. Windchill Dew Point Humidity Pressure Visibility Wind Dir Wind Speed Gust Speed Precip Events Conditions
12:52 AM 35.1 °F 26.4 °F 23.0 °F 61% 30.12 in 10.0 mi SSE 12.7 mph - N/A   Clear
1:52 AM 34.0 °F 25.0 °F 23.0 °F 64% 30.12 in 10.0 mi SSE 12.7 mph - N/A   Clear
2:52 AM 34.0 °F 26.0 °F 23.0 °F 64% 30.12 in 10.0 mi SSE 10.4 mph - N/A   Clear
3:52 AM 33.1 °F 26.1 °F 24.1 °F 70% 30.13 in 10.0 mi SSE 8.1 mph - N/A   Clear
4:52 AM 32.0 °F 23.6 °F 24.1 °F 73% 30.12 in 10.0 mi SSE 10.4 mph - N/A   Clear
5:52 AM 30.9 °F 22.8 °F 23.0 °F 72% 30.14 in 10.0 mi SSE 9.2 mph - N/A   Clear
6:52 AM 30.0 °F 20.5 °F 23.0 °F 75% 30.15 in 10.0 mi SSE 11.5 mph - N/A   Clear
7:52 AM 30.9 °F 21.7 °F 24.1 °F 76% 30.15 in 10.0 mi SSE 11.5 mph - N/A   Clear
8:52 AM 36.0 °F 27.5 °F 24.1 °F 62% 30.15 in 10.0 mi South 12.7 mph - N/A   Clear
9:52 AM 41.0 °F 32.8 °F 25.0 °F 53% 30.15 in 10.0 mi South 16.1 mph - N/A   Partly Cloudy
10:52 AM 46.0 °F 39.9 °F 25.0 °F 44% 30.14 in 10.0 mi South 13.8 mph - N/A   Clear
11:52 AM 48.9 °F - 26.1 °F 41% 30.11 in 10.0 mi South 11.5 mph - N/A   Mostly Cloudy
12:52 PM 51.1 °F - 30.0 °F 44% 30.07 in 10.0 mi SSE 12.7 mph - N/A   Scattered Clouds
1:52 PM 53.1 °F - 33.1 °F 47% 30.06 in 10.0 mi South 12.7 mph - N/A   Overcast
2:52 PM 54.0 °F - 37.0 °F 53% 30.07 in 10.0 mi SSW 15.0 mph 19.6 mph N/A   Overcast
3:52 PM 52.0 °F - 35.1 °F 53% 30.07 in 10.0 mi SSE 9.2 mph - N/A   Partly Cloudy
4:52 PM 52.0 °F - 34.0 °F 50% 30.09 in 10.0 mi South 8.1 mph - N/A   Mostly Cloudy
5:52 PM 52.0 °F - 35.1 °F 53% 30.09 in 10.0 mi South 9.2 mph - N/A   Overcast
6:52 PM 52.0 °F - 37.9 °F 59% 30.12 in 10.0 mi South 8.1 mph - 0.00 in Rain Light Rain
7:52 PM 48.0 °F - 42.1 °F 80% 30.13 in 10.0 mi South 10.4 mph - 0.02 in Rain Light Rain
8:52 PM 46.9 °F - 45.0 °F 93% 30.16 in 8.0 mi South 9.2 mph - 0.04 in Rain Light Rain
8:59 PM 46.9 °F - 45.0 °F 93% 30.14 in 10.0 mi South 9.2 mph - 0.00 in Rain Light Rain
9:17 PM 46.9 °F - 46.0 °F 97% 30.15 in 5.0 mi South 9.2 mph - 0.02 in Rain Light Rain
9:35 PM 46.9 °F - 46.0 °F 97% 30.15 in 2.5 mi South 9.2 mph - 0.07 in Rain Rain
9:52 PM 46.9 °F - 46.0 °F 97% 30.17 in 2.5 mi South 8.1 mph - 0.10 in Rain Rain
10:06 PM 46.9 °F - 46.9 °F 100% 30.16 in 3.0 mi South 5.8 mph - 0.03 in Rain Light Rain
10:15 PM 46.9 °F - 46.9 °F 100% 30.16 in 3.0 mi South 5.8 mph - 0.04 in Rain Light Rain
10:44 PM 46.9 °F - 46.9 °F 100% 30.16 in 4.0 mi South 5.8 mph - 0.05 in Rain Light Rain
10:52 PM 46.9 °F - 46.9 °F 100% 30.18 in 4.0 mi South 5.8 mph - 0.05 in Rain Light Rain
11:12 PM 46.9 °F - 46.9 °F 100% 30.18 in 3.0 mi South 4.6 mph - 0.02 in Rain Rain
11:30 PM 46.9 °F - 46.0 °F 97% 30.19 in 2.5 mi South 4.6 mph - 0.04 in Rain Light Rain
11:35 PM 46.9 °F - 46.9 °F 100% 30.19 in 3.0 mi South 5.8 mph - 0.04 in Rain Light Rain
11:52 PM 46.4 °F 44.3 °F 46.4 °F 100% 30.20 in 2.5 mi South 4.6 mph - N/A Rain Light Rain
11:59 PM 46.9 °F - 46.9 °F 100% 30.20 in 2.5 mi South 4.6 mph - 0.01 in Rain Light Rain